Weather History for Fryeburg, ME

Change the Weather History Date:

Tuesday, September 3, 2013

  Actual Average Record
Temperature  
Mean Temperature 68 °F -  
Max Temperature 79 °F 75 °F 93 °F (1999)
Min Temperature 60 °F 47 °F 37 °F (2001)
Cooling Degree Days 4    
Growing Degree Days 18 (Base 50)    
Moisture  
Dew Point 64 °F    
Average Humidity 88    
Maximum Humidity 100    
Minimum Humidity 64    
Precipitation  
Precipitation 0.02 in - - ()
Sea Level Pressure  
Sea Level Pressure 29.74 in    
Wind  
Wind Speed 1 mph (WSW)    
Max Wind Speed 8 mph    
Max Gust Speed -    
Visibility 8 miles    
Events Fog , Rain    
Averages and records for this station are not official NWS values.
T = Trace of Precipitation, MM = Missing Value Source: NWS Daily Summary

Daily Weather History Graph

Daily Weather History Graph

Search for Another Location

Airport:

Trip Planner

Search our weather history database for the weather conditions in past years. The results will help you decide how hot, cold, wet, or windy it might be!

Date:

Astronomy

Sep. 03, 2013 Rise Set
Actual Time 6:09 AM EDT 7:15 PM EDT
Civil Twilight 5:39 AM EDT 7:45 PM EDT
Nautical Twilight 5:04 AM EDT 8:20 PM EDT
Astronomical Twilight 4:27 AM EDT 8:57 PM EDT
Moon 4:18 AM EDT (9/3) 6:02 PM EDT (9/3)
Length of Visible Light 14h 05m
Length of Day
13h 06m
Waning Crescent, 3% of the Moon is Illuminated
Sep 3
Waning Crescent
Sep 5
New
Sep 12
First Quarter
Sep 19
Full
Sep 26
Last Quarter

Hourly Weather History & Observations

Time (EDT) Temp. Dew Point Humidity Pressure Visibility Wind Dir Wind Speed Gust Speed Precip Events Conditions
12:16 AM 66.2 °F 64.4 °F 94% 29.77 in 10.0 mi Calm Calm - N/A   Overcast
12:54 AM 66.0 °F 64.9 °F 96% 29.76 in 8.0 mi Calm Calm - 0.02 in Rain Light Rain
1:15 AM 66.2 °F 64.4 °F 94% 29.73 in 8.0 mi Calm Calm - 0.00 in Rain Light Rain
1:23 AM 66.2 °F 64.4 °F 94% 29.73 in 10.0 mi Calm Calm - 0.00 in Rain Light Rain
1:37 AM 66.2 °F 64.4 °F 94% 29.72 in 10.0 mi Calm Calm - 0.00 in   Overcast
1:54 AM 66.0 °F 64.9 °F 96% 29.73 in 10.0 mi Calm Calm - 0.00 in   Overcast
2:29 AM 66.2 °F 64.4 °F 94% 29.74 in 1.8 mi Calm Calm - N/A   Overcast
2:35 AM 66.2 °F 64.4 °F 94% 29.74 in 0.8 mi Calm Calm - N/A   Mist
2:54 AM 66.0 °F 64.9 °F 96% 29.73 in 0.8 mi Calm Calm - N/A   Overcast
3:01 AM 64.4 °F 64.4 °F 100% 29.72 in 1.5 mi Calm Calm - N/A   Overcast
3:19 AM 64.4 °F 64.4 °F 100% 29.72 in 1.8 mi Calm Calm - N/A   Overcast
3:38 AM 64.4 °F 64.4 °F 100% 29.72 in 0.8 mi Calm Calm - N/A   Mist
3:49 AM 64.4 °F 64.4 °F 100% 29.72 in 0.5 mi Calm Calm - N/A Fog Fog
3:54 AM 64.9 °F 64.9 °F 100% 29.72 in 0.5 mi Calm Calm - N/A Fog Fog
4:07 AM 66.2 °F 64.4 °F 94% 29.72 in 1.5 mi Calm Calm - N/A   Overcast
4:16 AM 66.2 °F 64.4 °F 94% 29.72 in 2.5 mi Calm Calm - N/A   Overcast
4:25 AM 64.4 °F 64.4 °F 100% 29.72 in 5.0 mi Calm Calm - N/A   Overcast
4:54 AM 66.0 °F 64.9 °F 96% 29.72 in 10.0 mi Calm Calm - N/A   Overcast
5:54 AM 66.0 °F 64.9 °F 96% 29.74 in 10.0 mi Calm Calm - N/A   Overcast
6:54 AM 66.0 °F 64.9 °F 96% 29.74 in 9.0 mi Calm Calm - N/A   Overcast
7:54 AM 66.9 °F 64.9 °F 93% 29.77 in 10.0 mi Calm Calm - N/A   Overcast
8:47 AM 68.0 °F 64.4 °F 88% 29.78 in 10.0 mi Variable 4.6 mph - N/A   Mostly Cloudy
8:54 AM 68.0 °F 64.9 °F 90% 29.78 in 10.0 mi Calm Calm - N/A   Overcast
9:01 AM 69.8 °F 64.4 °F 83% 29.78 in 10.0 mi WNW 3.5 mph - N/A   Overcast
9:49 AM 69.8 °F 64.4 °F 83% 29.77 in 10.0 mi Variable 3.5 mph - N/A   Overcast
9:54 AM 69.1 °F 64.9 °F 87% 29.77 in 10.0 mi NW 3.5 mph - N/A   Mostly Cloudy
10:54 AM 72.0 °F 64.9 °F 78% 29.77 in 10.0 mi Calm Calm - N/A   Mostly Cloudy
11:07 AM 71.6 °F 64.4 °F 78% 29.78 in 10.0 mi North 3.5 mph - N/A   Mostly Cloudy
11:54 AM 73.9 °F 66.0 °F 76% 29.75 in 10.0 mi Calm Calm - N/A   Mostly Cloudy
12:51 PM 77.0 °F 66.2 °F 69% 29.74 in 10.0 mi Calm Calm - N/A   Mostly Cloudy
12:54 PM 75.9 °F 66.0 °F 71% 29.74 in 10.0 mi Calm Calm - N/A   Mostly Cloudy
1:24 PM 75.2 °F 66.2 °F 73% 29.73 in 10.0 mi East 3.5 mph - N/A   Mostly Cloudy
1:54 PM 77.0 °F 68.0 °F 74% 29.73 in 10.0 mi SSW 4.6 mph - N/A   Overcast
2:54 PM 75.9 °F 63.0 °F 64% 29.72 in 10.0 mi SSW 4.6 mph - N/A   Overcast
3:54 PM 75.0 °F 64.0 °F 69% 29.71 in 10.0 mi SSW 8.1 mph - N/A   Overcast
4:54 PM 72.0 °F 64.0 °F 76% 29.72 in 10.0 mi SW 3.5 mph - N/A   Overcast
5:54 PM 72.0 °F 62.1 °F 71% 29.72 in 10.0 mi SW 3.5 mph - N/A   Clear
6:54 PM 69.1 °F 61.0 °F 75% 29.72 in 10.0 mi Calm Calm - N/A   Partly Cloudy
7:54 PM 66.0 °F 61.0 °F 84% 29.73 in 10.0 mi WSW 4.6 mph - N/A   Clear
8:54 PM 66.0 °F 61.0 °F 84% 29.75 in 10.0 mi WSW 5.8 mph - N/A   Clear
9:54 PM 62.1 °F 60.1 °F 93% 29.77 in 10.0 mi Calm Calm - N/A   Clear
10:54 PM 60.1 °F 57.9 °F 93% 29.77 in 10.0 mi Calm Calm - N/A   Clear
11:54 PM 61.0 °F 57.0 °F 87% 29.76 in 10.0 mi WSW 4.6 mph - N/A   Clear